Total_Precipitation_Accumulation
0.47 0.25 0.45 0.50 0.43 0.40 0.47 0.55 0.56 0.55 0.60 0.68 0.65 0.58 0.53 0.37 0.29 0.24 0.23 0.23 0.30 0.41 0.40 0.37 0.34 0.29 0.22 0.20 0.24 0.31 0.38 0.46 0.51 0.53 0.62 0.65 0.61 0.64 0.77 0.90 0.98 1.23 0.79
0.46 0.31 0.49 0.55 0.45 0.41 0.44 0.49 0.53 0.52 0.55 0.61 0.63 0.63 0.48 0.33 0.28 0.25 0.23 0.23 0.26 0.30 0.32 0.35 0.38 0.34 0.27 0.28 0.33 0.36 0.39 0.43 0.53 0.56 0.71 0.75 0.64 0.65 0.62 0.68 0.85 1.03 0.74
0.46 0.37 0.43 0.55 0.47 0.43 0.44 0.49 0.55 0.58 0.60 0.63 0.68 0.70 0.47 0.33 0.30 0.28 0.28 0.29 0.28 0.24 0.26 0.33 0.39 0.38 0.32 0.34 0.39 0.41 0.42 0.44 0.52 0.59 0.95 1.45 0.96 0.70 0.68 0.72 0.74 0.66 0.71
0.51 0.49 0.54 0.68 0.60 0.51 0.50 0.59 0.67 0.73 0.76 0.82 0.81 0.68 0.46 0.39 0.39 0.37 0.38 0.38 0.33 0.26 0.26 0.28 0.33 0.34 0.31 0.34 0.39 0.37 0.44 0.49 0.57 0.67 1.06 1.49 1.34 0.95 0.84 0.84 0.77 0.61 0.70
0.53 0.59 0.74 0.82 0.72 0.65 0.62 0.69 0.81 0.90 0.88 0.90 0.84 0.61 0.49 0.47 0.48 0.47 0.51 0.44 0.34 0.30 0.27 0.28 0.31 0.30 0.28 0.28 0.32 0.35 0.42 0.55 0.72 0.80 1.11 1.42 1.57 1.04 0.82 0.92 0.93 0.76 0.80
0.49 0.50 0.64 0.78 0.72 0.68 0.72 0.79 0.81 0.77 0.79 0.87 0.79 0.62 0.50 0.54 0.54 0.54 0.48 0.41 0.39 0.37 0.34 0.33 0.32 0.30 0.31 0.28 0.29 0.35 0.45 0.57 0.70 0.90 1.10 1.44 1.50 0.97 0.76 0.90 0.99 0.95 0.91
0.55 0.48 0.56 0.67 0.65 0.64 0.72 0.82 0.84 0.76 0.79 0.83 0.81 0.73 0.55 0.54 0.56 0.59 0.50 0.43 0.41 0.42 0.40 0.39 0.36 0.32 0.28 0.27 0.28 0.32 0.42 0.42 0.61 0.87 1.05 1.41 1.17 0.73 0.63 0.81 1.06 1.14 1.04
0.64 0.58 0.55 0.63 0.61 0.61 0.67 0.75 0.79 0.78 0.86 0.85 0.74 0.68 0.64 0.55 0.54 0.54 0.49 0.49 0.47 0.46 0.45 0.44 0.38 0.34 0.33 0.31 0.29 0.30 0.36 0.32 0.40 0.63 0.83 1.15 0.99 0.78 0.60 0.67 0.89 1.04 1.09
0.70 0.68 0.62 0.62 0.63 0.67 0.75 0.76 0.79 0.86 0.97 0.94 0.76 0.69 0.70 0.58 0.51 0.48 0.48 0.49 0.49 0.50 0.53 0.47 0.39 0.34 0.37 0.38 0.35 0.32 0.31 0.31 0.39 0.53 0.63 0.88 0.84 0.78 0.60 0.61 0.76 0.87 1.02
0.67 0.64 0.59 0.59 0.63 0.68 0.78 0.82 0.83 0.83 0.92 0.92 0.81 0.79 0.79 0.63 0.53 0.52 0.49 0.51 0.53 0.55 0.60 0.55 0.46 0.39 0.39 0.40 0.37 0.34 0.30 0.27 0.37 0.43 0.58 0.61 0.72 0.69 0.54 0.52 0.61 0.70 0.76
0.61 0.62 0.59 0.57 0.61 0.67 0.77 0.79 0.89 0.91 0.95 0.88 0.81 0.85 0.76 0.56 0.53 0.55 0.49 0.58 0.66 0.76 0.76 0.68 0.59 0.49 0.43 0.37 0.34 0.31 0.24 0.23 0.38 0.39 0.49 0.55 0.66 0.63 0.52 0.51 0.55 0.54 0.54
0.64 0.65 0.63 0.66 0.64 0.64 0.69 0.93 1.10 0.98 0.89 0.78 0.80 0.78 0.75 0.72 0.70 0.52 0.52 0.66 0.71 0.77 0.78 0.70 0.66 0.53 0.37 0.27 0.32 0.31 0.19 0.22 0.31 0.29 0.33 0.49 0.63 0.63 0.55 0.51 0.48 0.45 0.44
0.64 0.66 0.61 0.59 0.54 0.55 0.69 0.87 1.06 1.11 1.07 1.04 0.90 0.89 0.85 0.76 0.65 0.51 0.48 0.53 0.58 0.64 0.60 0.64 0.61 0.42 0.34 0.32 0.36 0.29 0.22 0.23 0.28 0.29 0.37 0.58 0.68 0.62 0.59 0.52 0.47 0.43 0.40
0.56 0.59 0.55 0.53 0.51 0.49 0.50 0.61 0.76 0.83 0.82 0.84 0.85 0.79 0.80 0.81 0.74 0.63 0.58 0.62 0.64 0.61 0.66 0.70 0.66 0.53 0.44 0.36 0.35 0.34 0.31 0.28 0.31 0.36 0.42 0.60 0.76 0.73 0.71 0.62 0.57 0.48 0.43
0.50 0.52 0.55 0.58 0.55 0.61 0.60 0.57 0.56 0.62 0.67 0.72 0.80 0.72 0.67 0.70 0.73 0.74 0.69 0.73 0.69 0.67 0.69 0.69 0.56 0.53 0.51 0.41 0.38 0.39 0.41 0.35 0.38 0.36 0.40 0.55 0.82 1.04 0.98 0.85 0.74 0.59 0.52
0.47 0.57 0.62 0.58 0.61 0.60 0.56 0.59 0.62 0.62 0.66 0.69 0.73 0.66 0.60 0.60 0.62 0.74 0.72 0.77 0.68 0.70 0.77 0.70 0.63 0.62 0.60 0.50 0.40 0.41 0.40 0.36 0.37 0.42 0.46 0.57 0.73 1.06 1.28 1.17 1.05 0.89 0.67
0.43 0.57 0.68 0.66 0.69 0.65 0.60 0.63 0.66 0.66 0.63 0.65 0.69 0.62 0.57 0.61 0.62 0.74 0.78 0.77 0.73 0.76 0.79 0.82 0.81 0.75 0.65 0.55 0.47 0.43 0.40 0.40 0.40 0.40 0.41 0.56 0.58 0.65 0.98 1.24 1.29 1.20 0.95
0.40 0.51 0.63 0.65 0.70 0.73 0.72 0.72 0.69 0.65 0.66 0.72 0.75 0.70 0.66 0.64 0.67 0.86 0.92 0.80 0.85 0.94 0.97 0.98 0.94 0.85 0.75 0.68 0.67 0.56 0.45 0.43 0.44 0.43 0.42 0.45 0.43 0.39 0.48 0.62 0.75 0.91 1.06
0.40 0.47 0.52 0.58 0.78 0.81 0.77 0.83 0.83 0.80 0.86 0.89 0.92 0.89 0.84 0.80 0.88 1.05 1.12 1.03 1.01 1.14 1.11 1.00 1.00 0.99 0.89 0.86 0.82 0.76 0.58 0.48 0.46 0.43 0.45 0.51 0.50 0.44 0.43 0.39 0.43 0.52 0.73
0.34 0.39 0.46 0.55 0.67 0.79 0.94 1.02 1.10 1.11 1.11 1.23 1.30 1.29 1.12 1.07 1.13 1.28 1.37 1.33 1.29 1.39 1.37 1.24 1.30 1.28 1.16 1.19 1.07 0.92 0.76 0.65 0.59 0.54 0.50 0.54 0.60 0.52 0.47 0.40 0.40 0.36 0.43
0.25 0.31 0.37 0.54 0.70 0.86 0.98 1.13 1.38 1.54 1.64 1.63 1.63 1.70 1.62 1.43 1.52 1.63 1.59 1.80 1.86 1.83 1.83 1.76 1.85 1.84 1.57 1.41 1.63 1.55 1.11 0.81 0.69 0.67 0.64 0.59 0.58 0.59 0.57 0.54 0.48 0.40 0.34
0.16 0.22 0.30 0.44 0.67 0.92 1.15 1.33 1.52 1.84 2.00 2.00 2.06 2.01 1.96 1.84 1.86 1.79 1.86 2.06 2.10 2.19 2.28 2.11 2.20 2.25 1.92 1.63 1.96 2.29 1.77 1.35 0.83 0.61 0.63 0.65 0.65 0.65 0.64 0.56 0.54 0.50 0.41
0.09 0.14 0.21 0.34 0.57 0.88 1.19 1.45 1.64 1.88 2.14 2.24 2.15 2.10 2.13 2.21 2.25 2.14 2.09 2.21 2.22 2.28 2.44 2.47 2.41 2.45 2.33 2.02 1.99 2.36 2.15 1.82 1.41 0.83 0.66 0.69 0.74 0.73 0.74 0.73 0.66 0.60 0.51
0.10 0.13 0.17 0.32 0.48 0.72 0.99 1.32 1.57 1.84 2.15 2.22 2.20 2.17 2.21 2.33 2.41 2.37 2.31 2.37 2.37 2.31 2.39 2.47 2.46 2.63 2.75 2.45 2.21 1.99 1.85 1.82 1.79 1.35 0.88 0.75 0.83 0.84 0.84 0.75 0.72 0.75 0.70
0.15 0.18 0.24 0.38 0.53 0.74 0.98 1.30 1.63 1.82 1.99 2.19 2.20 2.11 2.05 2.11 2.12 2.11 2.21 2.36 2.37 2.33 2.33 2.49 2.60 2.77 2.71 2.60 2.44 2.31 2.12 1.91 1.55 1.57 1.44 1.14 1.00 0.87 0.90 0.94 0.91 0.92 0.89
0.24 0.30 0.38 0.50 0.72 0.87 0.97 1.12 1.29 1.50 1.78 1.92 2.02 2.06 2.07 2.06 1.93 1.85 1.94 2.04 2.13 2.18 2.16 2.19 2.33 2.47 2.61 2.73 2.63 2.45 2.32 2.17 1.96 1.81 1.51 1.36 1.33 1.10 0.96 0.93 0.98 0.98 1.02